Presure
194 194 279 231 217 223 223 224 225 226 219 224 218 219 219 220 221 211 210 217 213 231 222 203 196 192 193 195 197 198 195 198 201 198 196 196 189 183 194 190 201 198 206 210
193 190 197 252 227 223 224 215 214 216 216 219 213 204 191 203 204 209 218 217 240 228 214 199 196 193 193 197 197 194 197 194 196 194 200 189 182 192 191 207 198 209 210 210
189 199 205 264 244 226 225 221 213 207 205 209 206 200 211 213 217 220 205 225 234 214 204 199 197 196 196 197 196 193 192 194 191 200 194 186 193 196 207 196 210 206 214 215
198 201 226 211 259 240 218 222 209 208 205 208 211 205 202 211 204 224 249 239 221 201 198 195 196 199 195 195 194 195 196 199 193 199 185 194 193 205 195 208 206 214 216 222
175 191 214 227 259 254 229 222 212 218 211 204 204 207 209 208 203 255 248 215 207 194 194 197 197 200 196 195 193 196 198 189 198 196 193 184 206 198 206 210 214 216 223 217
184 175 186 219 236 267 234 215 220 226 215 210 207 201 203 206 210 207 204 201 193 196 200 193 190 194 196 195 196 189 196 194 200 194 190 204 203 207 211 214 216 220 220 218
195 183 196 216 225 261 244 227 226 218 213 210 209 209 203 203 203 203 201 199 194 191 193 194 197 199 194 193 199 199 194 203 195 198 203 202 210 209 214 216 217 222 221 219
183 200 214 210 230 242 260 199 227 219 215 215 211 208 206 204 201 201 201 201 201 201 200 201 200 201 201 200 199 201 201 198 203 204 209 206 206 214 216 220 220 227 219 228
190 191 182 193 235 237 261 243 232 227 219 214 211 211 211 211 210 209 209 208 206 206 205 206 203 200 200 200 197 203 205 201 205 211 205 206 215 217 223 223 227 220 220 230
196 182 179 221 228 235 245 244 235 231 225 219 213 209 209 208 209 208 206 208 206 204 205 203 202 204 204 204 206 204 203 207 211 207 212 217 217 225 226 226 219 217 230 251
197 188 195 225 220 229 239 243 233 230 229 225 220 215 211 210 208 205 206 205 206 204 205 207 207 210 211 214 217 216 214 212 218 217 217 217 226 226 229 219 222 234 252 266
207 203 196 213 218 231 240 240 235 227 222 214 222 219 218 216 216 215 215 216 214 217 218 216 213 212 214 215 216 214 218 218 220 221 218 226 229 226 226 219 240 253 258 272
208 199 197 220 224 242 237 235 235 231 224 210 212 214 216 218 217 217 215 214 213 214 213 212 213 213 218 218 223 222 217 225 224 220 225 235 226 232 215 241 251 252 262 268
206 199 211 223 242 236 234 229 231 228 232 229 223 219 217 219 223 226 228 226 224 222 221 222 224 226 226 222 224 219 228 223 225 227 236 226 232 232 253 255 266 267 268 272
221 222 242 234 235 235 230 226 231 231 231 227 200 205 211 216 214 214 217 217 218 219 225 229 227 224 228 227 232 229 227 229 234 233 228 234 246 257 258 269 276 278 282 293
180 234 236 229 225 233 228 227 228 221 222 227 220 217 204 204 231 218 217 220 223 231 236 234 229 226 230 229 228 231 232 238 228 224 236 250 262 269 271 282 280 289 306 439
247 240 232 223 225 226 233 234 234 233 228 229 227 225 223 211 217 221 215 222 226 225 230 234 234 231 228 231 232 236 240 227 242 246 258 267 275 277 287 282 293 306 440 438
248 248 242 235 233 235 240 233 230 231 222 224 219 221 204 204 231 216 216 222 226 235 245 242 240 234 235 237 240 230 246 242 248 265 272 275 287 272 284 300 312 443 352 412
225 248 237 231 233 235 234 233 233 235 235 235 239 237 233 232 215 214 225 232 236 239 247 230 235 233 237 231 239 246 250 259 273 257 288 269 273 283 301 317 436 419 404 398
220 215 230 236 235 235 237 236 233 234 240 249 247 254 249 222 225 242 229 232 237 244 235 230 237 234 238 243 250 254 272 262 276 286 260 269 288 300 320 428 410 398 398 383
216 233 232 226 239 243 246 244 242 241 230 244 242 243 244 243 228 229 237 237 246 240 238 236 241 242 247 254 269 265 268 283 262 257 278 293 301 333 432 409 386 404 392 370
216 220 221 230 235 258 250 245 245 247 236 254 257 228 254 237 240 242 241 251 250 241 248 245 245 248 268 260 275 283 274 258 264 290 291 315 412 413 403 402 382 368 388 375
215 210 215 222 224 231 226 242 227 252 256 252 236 239 239 240 246 250 248 248 246 245 247 248 249 248 264 276 276 269 255 285 295 301 350 420 415 403 388 397 381 368 395 371
205 216 205 231 231 231 226 229 234 237 237 237 238 248 253 249 245 247 248 249 250 251 259 250 265 273 264 279 266 286 292 301 308 378 416 406 394 419 411 387 369 414 393 372
217 220 222 223 231 240 246 269 270 263 257 254 246 244 250 253 254 252 252 245 244 246 270 251 256 263 275 282 291 304 304 341 419 410 396 385 398 401 390 367 427 407 382 424
244 247 252 258 264 267 258 255 254 251 250 252 258 257 253 252 247 250 261 268 258 252 263 276 280 293 303 304 316 343 401 416 400 388 380 385 392 384 366 372 410 388 440 445
252 267 271 258 251 250 250 252 257 258 257 253 248 252 261 269 260 253 254 264 273 280 281 294 299 315 321 337 405 414 409 390 376 379 383 379 376 369 354 379 385 390 458 433
Wind_Speed
24 21 21 24 25 24 24 23 24 29 29 29 33 37 40 40 37 35 31 31 35 32 32 36 40 44 50 52 53 55 58 60 62 62 64 67 71 75 80 83 89 90 92 94
27 24 29 21 28 26 24 22 28 30 32 32 31 38 47 45 40 38 35 34 33 34 35 39 43 48 51 54 55 58 61 63 66 67 69 72 75 80 82 85 86 90 92 93
32 30 31 22 30 26 26 27 29 31 34 32 35 40 38 42 40 39 42 39 36 36 39 41 46 50 53 54 56 59 61 65 67 69 70 75 79 82 83 85 91 90 94 98
31 31 34 34 30 30 28 29 32 35 35 34 32 37 40 37 41 39 39 38 39 41 43 46 49 52 53 55 59 61 63 65 67 69 74 78 80 83 83 89 92 97 100 102
42 31 36 37 37 32 30 30 37 37 36 35 36 34 36 38 40 36 37 40 41 43 46 48 49 53 55 58 60 63 65 67 70 73 77 75 84 84 90 93 96 98 102 103
39 42 38 42 38 35 34 39 39 34 34 36 36 38 38 38 39 40 41 42 45 45 47 49 53 56 58 60 63 65 68 71 75 76 78 84 86 91 92 96 98 101 104 106
37 42 43 43 40 36 35 46 38 38 37 37 39 41 41 39 40 41 43 45 47 49 51 53 55 58 61 65 67 70 72 75 76 80 83 86 92 93 97 99 100 104 104 108
40 32 45 44 43 38 36 41 43 41 42 42 43 43 43 44 46 46 47 49 51 52 54 56 59 62 65 68 70 72 75 78 81 84 89 90 93 97 99 101 103 106 106 112
40 38 46 44 46 41 37 38 42 44 45 47 47 46 47 47 48 50 51 53 55 56 57 59 61 65 68 71 73 77 80 81 85 90 90 94 97 99 101 103 104 105 108 114
46 51 45 54 48 46 41 39 42 44 48 49 50 49 49 51 53 54 54 56 58 60 62 64 66 69 72 75 78 79 82 86 89 91 94 96 98 100 103 105 105 107 114 119
49 49 46 54 51 50 47 44 45 46 47 49 52 53 55 56 58 59 59 60 62 64 66 68 71 74 77 80 82 85 88 89 92 93 95 98 101 103 105 105 107 113 119 119
61 56 44 59 57 56 52 48 48 50 50 49 51 54 56 59 60 62 65 66 68 70 72 74 76 79 81 83 85 88 90 92 93 95 97 101 102 103 107 105 115 121 122 124
64 54 50 64 64 57 54 51 52 54 55 55 56 57 60 61 63 65 67 70 72 75 77 79 81 83 85 87 89 91 91 94 95 97 102 106 102 106 100 114 120 121 123 124
65 56 69 67 58 56 56 56 56 57 57 59 61 62 63 65 67 69 70 71 74 77 79 82 84 85 87 88 90 91 94 94 98 102 105 103 106 108 117 116 118 118 121 121
71 72 61 59 57 60 62 62 60 59 60 61 59 61 63 65 67 70 71 74 76 79 82 83 84 87 89 91 93 94 96 100 103 103 103 107 113 119 119 122 123 121 121 125
49 60 59 60 63 66 67 65 65 62 64 65 65 66 66 69 72 73 76 79 82 84 87 87 88 89 92 93 94 98 101 103 99 100 107 116 121 123 122 124 122 125 131 90
63 63 64 68 66 68 72 71 71 72 70 72 72 72 72 71 75 79 81 84 87 88 89 92 92 92 94 95 98 101 104 99 109 113 121 122 122 122 121 121 125 131 87 81
65 65 66 64 66 69 71 72 73 74 70 75 72 75 73 76 83 82 85 88 91 94 96 95 94 95 97 99 101 98 110 110 116 122 121 121 121 118 121 127 131 83 105 78
58 64 66 65 68 71 73 74 77 80 83 84 88 87 85 87 84 85 89 92 94 97 96 93 97 97 100 99 107 113 116 121 121 115 121 116 118 121 129 135 82 80 78 74
53 51 63 71 75 77 80 80 84 87 92 92 91 95 91 87 88 92 91 93 97 98 96 97 101 100 105 111 117 120 120 116 121 119 114 117 124 129 135 81 81 78 73 72
55 69 67 67 82 88 84 83 84 85 82 89 88 90 92 92 90 94 97 99 103 100 100 100 105 108 114 119 120 119 120 120 113 114 121 126 130 129 77 78 79 71 69 70
59 61 64 70 73 88 89 90 90 91 89 102 102 88 96 95 98 100 101 105 104 103 107 107 110 114 119 119 120 118 116 113 117 125 126 133 90 82 80 74 76 76 67 67
65 65 69 72 75 74 76 80 82 90 91 92 91 93 95 98 101 102 102 103 104 105 109 112 112 113 119 119 118 117 114 123 128 132 123 83 81 79 78 72 72 72 66 66
67 71 67 79 80 81 82 85 88 91 91 93 96 98 98 99 99 101 102 105 108 110 114 113 118 118 117 118 116 122 127 128 132 112 82 81 81 74 70 70 71 64 63 63
75 78 79 81 86 93 94 94 92 92 93 95 96 97 99 102 104 105 107 104 105 108 118 111 115 116 118 122 125 128 127 124 82 82 81 81 77 72 69 70 62 60 61 56
90 93 95 96 97 94 92 92 92 92 95 98 101 102 102 103 102 105 112 114 112 113 117 119 121 125 128 127 129 123 96 82 82 82 80 78 72 70 69 69 61 60 53 48
92 95 94 92 92 92 93 95 97 98 98 98 97 103 109 111 109 108 111 114 118 120 122 126 128 132 129 124 95 85 82 83 83 81 77 75 71 70 70 65 62 56 44 44
Wind_Direction
291 300 301 276 279 275 274 277 274 270 265 255 256 259 261 263 267 266 267 265 267 266 265 272 276 277 278 283 289 292 291 292 296 300 302 299 300 303 302 304 304 304 308 310
284 286 301 281 272 272 273 270 262 262 261 260 258 259 274 271 274 273 271 268 268 264 265 272 276 280 286 287 289 292 297 302 303 301 301 301 301 300 302 303 303 308 310 311
271 288 295 297 271 272 265 259 262 263 266 264 261 266 268 273 273 271 280 273 267 270 274 279 282 285 288 292 294 296 298 298 298 299 298 298 299 300 305 305 309 310 310 311
278 293 297 290 281 269 271 261 262 263 265 265 265 266 269 271 275 272 262 261 267 282 285 285 286 288 293 294 294 294 294 295 296 299 298 298 301 305 306 309 310 312 313 314
267 279 294 294 304 280 270 267 259 255 262 268 268 271 274 275 273 260 258 272 276 283 285 286 290 291 292 293 294 295 297 297 299 297 298 301 306 307 310 311 312 313 314 313
261 269 278 293 294 284 271 264 265 265 265 266 267 266 266 270 277 280 279 279 282 285 286 288 288 289 290 292 294 295 298 298 299 299 303 306 308 309 310 311 312 313 313 312
263 268 283 285 293 295 265 267 270 271 270 267 266 267 270 272 271 273 276 278 280 281 282 285 288 291 293 295 296 296 297 299 300 303 306 307 310 311 311 312 312 312 312 312
254 280 288 286 294 292 275 275 267 268 268 265 267 270 270 272 275 277 278 279 280 283 286 289 291 292 292 292 294 298 300 301 304 306 307 309 310 310 311 311 312 312 312 313
257 264 266 279 293 292 284 272 266 265 269 270 271 272 274 276 278 280 282 284 286 287 289 289 290 291 293 296 298 299 301 304 306 306 308 309 309 310 310 311 312 311 311 313
270 259 267 290 292 297 291 276 270 269 268 270 272 276 278 278 279 280 282 284 285 287 289 291 292 294 295 296 297 301 303 304 305 306 307 308 308 309 311 311 310 310 312 314
273 263 281 290 290 293 290 280 276 275 274 274 276 279 281 281 282 284 285 286 288 289 292 293 293 295 297 299 300 301 301 303 304 306 307 307 309 310 311 308 309 310 313 313
276 275 277 288 291 292 287 283 278 277 276 281 278 280 281 282 285 287 289 291 292 294 295 296 297 298 298 299 299 300 302 303 305 306 306 307 309 309 309 308 311 313 313 315
276 276 279 286 288 286 285 283 279 277 278 284 286 286 287 288 289 290 292 294 294 295 295 295 295 296 297 298 298 300 303 304 305 306 307 307 308 309 307 312 312 312 314 313
276 278 281 283 281 280 279 279 278 279 280 281 283 286 288 290 291 294 296 296 294 294 294 294 295 296 296 297 299 301 303 304 305 306 307 307 308 308 311 311 312 312 311 311
272 274 274 276 277 274 276 278 281 281 283 282 287 288 289 290 291 291 291 291 292 292 293 294 294 295 298 300 302 304 305 305 305 306 306 308 309 311 311 312 312 311 312 313
276 267 267 270 272 272 275 278 280 281 283 284 283 285 286 288 291 288 289 291 294 296 297 296 297 299 300 302 304 304 304 304 304 304 307 310 310 310 311 312 312 314 316 312
256 258 260 266 269 273 275 277 279 281 281 284 285 285 286 286 290 291 292 295 295 297 297 297 299 301 303 303 303 304 305 304 308 309 310 309 311 311 312 313 314 317 313 312
258 259 263 269 272 275 276 278 280 281 283 284 286 287 289 292 291 292 294 295 296 298 300 300 301 302 303 303 305 304 308 308 309 309 309 311 311 311 313 316 317 314 315 313
273 266 268 274 275 276 279 281 283 283 284 286 287 289 291 291 290 294 294 296 298 299 300 301 302 302 304 305 307 308 308 307 308 308 309 310 311 314 316 317 315 314 315 314
280 279 283 281 282 284 282 282 283 286 286 288 290 291 293 292 292 294 296 297 298 299 300 301 302 304 306 307 307 306 307 307 308 309 308 310 314 316 316 315 314 314 314 314
278 279 282 286 281 280 282 281 284 285 287 291 292 292 293 294 295 296 296 297 298 299 300 301 304 305 306 305 306 307 307 307 307 308 310 313 315 315 315 314 313 313 313 313
274 278 280 281 282 280 283 286 288 289 289 288 290 294 294 294 295 295 297 297 297 299 301 303 304 305 304 305 305 306 306 306 307 311 312 313 315 314 314 313 313 312 313 313
275 278 280 281 282 285 286 291 289 288 288 290 292 293 293 294 294 294 296 298 299 300 302 302 302 302 303 304 304 303 304 310 312 312 311 314 314 314 313 312 313 312 312 312
277 277 283 282 284 285 284 285 289 291 291 291 292 291 291 293 294 296 298 299 300 300 300 300 300 301 302 303 302 307 308 309 310 310 313 313 313 316 314 313 312 313 313 311
277 278 279 281 284 287 286 286 287 288 288 289 289 292 294 296 297 297 298 298 297 298 298 300 300 300 303 304 305 307 308 308 312 312 312 312 315 316 314 313 316 315 313 315
278 279 280 282 285 287 288 289 289 289 289 292 294 295 295 295 295 295 296 296 297 298 298 300 301 303 304 305 306 306 308 310 310 310 311 313 314 314 314 316 318 317 317 314
279 282 284 286 287 287 288 289 290 291 292 292 293 294 294 294 294 295 295 295 296 299 300 301 303 303 304 304 306 307 308 308 309 310 311 312 312 312 313 316 318 316 315 313